Weather History for Cairo, IL

Change the Weather History Date:

Wednesday, May 2, 2012

  Actual Average Record
Temperature  
Mean Temperature 82 °F -  
Max Temperature 93 °F 72 °F 93 °F (2012)
Min Temperature 71 °F 53 °F 38 °F (1978)
Cooling Degree Days 17    
Growing Degree Days 32 (Base 50)    
Moisture  
Dew Point 63 °F    
Average Humidity 53    
Maximum Humidity 73    
Minimum Humidity 34    
Precipitation  
Precipitation 0.00 in - - ()
Sea Level Pressure  
Sea Level Pressure 29.96 in    
Wind  
Wind Speed 10 mph (South)    
Max Wind Speed 16 mph    
Max Gust Speed 22 mph    
Visibility 10 miles    
Events      
Averages and records for this station are not official NWS values.
T = Trace of Precipitation, MM = Missing Value Source: NWS Daily Summary

Daily Weather History Graph

Daily Weather History Graph

Search for Another Location

Airport:

Trip Planner

Search our weather history database for the weather conditions in past years. The results will help you decide how hot, cold, wet, or windy it might be!

Date:

Astronomy

May. 02, 2012 Rise Set
Actual Time 6:00 AM CDT 7:47 PM CDT
Civil Twilight 5:32 AM CDT 8:15 PM CDT
Nautical Twilight 4:58 AM CDT 8:49 PM CDT
Astronomical Twilight 4:22 AM CDT 9:25 PM CDT
Moon 4:04 PM CDT 3:25 AM CDT
Length of Visible Light 14h 42m
Length of Day
13h 46m
Waxing Gibbous, 83% of the Moon is Illuminated
May 2
Waxing Gibbous
May 5
Full
May 12
Last Quarter
May 20
New
May 28
First Quarter

Hourly Weather History & Observations

Time (CDT) Temp. Heat Index Dew Point Humidity Pressure Visibility Wind Dir Wind Speed Gust Speed Precip Events Conditions
12:15 AM 78.8 °F - 62.6 °F 57% 29.91 in 10.0 mi South 10.4 mph - N/A   Clear
12:35 AM 77.0 °F - 62.6 °F 61% 29.91 in 10.0 mi South 9.2 mph - N/A   Clear
12:55 AM 77.0 °F - 62.6 °F 61% 29.91 in 10.0 mi South 9.2 mph - N/A   Clear
1:15 AM 77.0 °F - 62.6 °F 61% 29.91 in 10.0 mi South 9.2 mph 16.1 mph N/A   Clear
1:35 AM 77.0 °F - 62.6 °F 61% 29.91 in 10.0 mi South 10.4 mph 17.3 mph N/A   Clear
1:55 AM 77.0 °F - 64.4 °F 65% 29.91 in 10.0 mi South 10.4 mph 17.3 mph N/A   Clear
2:15 AM 77.0 °F - 64.4 °F 65% 29.91 in 10.0 mi South 12.7 mph 17.3 mph N/A   Clear
2:35 AM 77.0 °F - 64.4 °F 65% 29.91 in 10.0 mi South 9.2 mph 16.1 mph N/A   Clear
2:55 AM 77.0 °F - 64.4 °F 65% 29.91 in 10.0 mi South 10.4 mph 19.6 mph N/A   Clear
3:15 AM 75.2 °F - 64.4 °F 69% 29.92 in 10.0 mi South 9.2 mph - N/A   Clear
3:35 AM 75.2 °F - 64.4 °F 69% 29.92 in 10.0 mi South 8.1 mph - N/A   Clear
3:55 AM 75.2 °F - 64.4 °F 69% 29.93 in 10.0 mi South 9.2 mph - N/A   Clear
4:15 AM 75.2 °F - 64.4 °F 69% 29.93 in 10.0 mi South 6.9 mph - N/A   Clear
4:35 AM 75.2 °F - 64.4 °F 69% 29.93 in 10.0 mi South 9.2 mph - N/A   Clear
4:55 AM 73.4 °F - 64.4 °F 73% 29.93 in 10.0 mi South 6.9 mph - N/A   Clear
5:15 AM 73.4 °F - 64.4 °F 73% 29.94 in 10.0 mi South 6.9 mph - N/A   Clear
5:35 AM 73.4 °F - 64.4 °F 73% 29.95 in 10.0 mi South 6.9 mph - N/A   Clear
5:55 AM 73.4 °F - 64.4 °F 73% 29.95 in 10.0 mi South 5.8 mph - N/A   Clear
6:15 AM 71.6 °F - 62.6 °F 73% 29.96 in 10.0 mi South 5.8 mph - N/A   Clear
6:35 AM 73.4 °F - 64.4 °F 73% 29.97 in 10.0 mi South 4.6 mph - N/A   Clear
6:55 AM 73.4 °F - 64.4 °F 73% 29.98 in 10.0 mi South 6.9 mph - N/A   Clear
7:15 AM 73.4 °F - 64.4 °F 73% 29.99 in 10.0 mi South 6.9 mph - N/A   Clear
7:35 AM 75.2 °F - 64.4 °F 69% 29.99 in 10.0 mi South 8.1 mph - N/A   Clear
7:55 AM 77.0 °F - 66.2 °F 69% 30.00 in 10.0 mi South 9.2 mph - N/A   Clear
8:15 AM 78.8 °F - 66.2 °F 65% 30.00 in 10.0 mi SSW 11.5 mph - N/A   Clear
8:35 AM 80.6 °F 82.7 °F 66.2 °F 61% 30.00 in 10.0 mi South 10.4 mph - N/A   Clear
8:55 AM 80.6 °F 82.7 °F 66.2 °F 61% 30.01 in 10.0 mi SSW 9.2 mph - N/A   Clear
9:15 AM 82.4 °F 84.6 °F 66.2 °F 58% 30.01 in 10.0 mi SSW 8.1 mph - N/A   Clear
9:35 AM 84.2 °F 86.6 °F 66.2 °F 55% 30.01 in 10.0 mi SSW 8.1 mph - N/A   Clear
9:55 AM 84.2 °F 86.6 °F 66.2 °F 55% 30.01 in 10.0 mi SSW 11.5 mph 17.3 mph N/A   Clear
10:15 AM 86.0 °F 87.3 °F 64.4 °F 48% 30.01 in 10.0 mi SSW 12.7 mph 17.3 mph N/A   Clear
10:35 AM 86.0 °F 87.3 °F 64.4 °F 48% 30.01 in 10.0 mi South 12.7 mph 17.3 mph N/A   Clear
10:55 AM 87.8 °F 89.4 °F 64.4 °F 46% 30.01 in 10.0 mi SSW 9.2 mph 17.3 mph N/A   Clear
11:15 AM 87.8 °F 89.4 °F 64.4 °F 46% 30.00 in 10.0 mi South 11.5 mph 16.1 mph N/A   Scattered Clouds
11:35 AM 87.8 °F 88.5 °F 62.6 °F 43% 30.00 in 10.0 mi SSW 15.0 mph 21.9 mph N/A   Scattered Clouds
11:55 AM 87.8 °F 89.4 °F 64.4 °F 46% 30.00 in 10.0 mi SSW 11.5 mph 16.1 mph N/A   Scattered Clouds
12:15 PM 89.6 °F 90.1 °F 62.6 °F 40% 30.00 in 10.0 mi SSW 16.1 mph 21.9 mph N/A   Scattered Clouds
12:35 PM 89.6 °F 90.1 °F 62.6 °F 40% 30.00 in 10.0 mi SSW 16.1 mph 21.9 mph N/A   Clear
12:55 PM 91.4 °F 92.1 °F 62.6 °F 38% 29.99 in 10.0 mi SSW 12.7 mph 17.3 mph N/A   Clear
1:15 PM 91.4 °F 92.1 °F 62.6 °F 38% 29.99 in 10.0 mi SSW 10.4 mph 18.4 mph N/A   Scattered Clouds
1:35 PM 91.4 °F 92.1 °F 62.6 °F 38% 29.99 in 10.0 mi South 10.4 mph - N/A   Scattered Clouds
1:55 PM 89.6 °F 90.1 °F 62.6 °F 40% 29.99 in 10.0 mi SSW 8.1 mph - N/A   Scattered Clouds
2:15 PM 91.4 °F 92.1 °F 62.6 °F 38% 29.97 in 10.0 mi South 11.5 mph 17.3 mph N/A   Scattered Clouds
2:35 PM 91.4 °F 92.1 °F 62.6 °F 38% 29.96 in 10.0 mi South 8.1 mph - N/A   Scattered Clouds
2:55 PM 91.4 °F 92.1 °F 62.6 °F 38% 29.96 in 10.0 mi SSW 9.2 mph - N/A   Mostly Cloudy
3:15 PM 93.2 °F 93.3 °F 60.8 °F 34% 29.95 in 10.0 mi SSW 11.5 mph 17.3 mph N/A   Mostly Cloudy
3:35 PM 91.4 °F 92.1 °F 62.6 °F 38% 29.94 in 10.0 mi SSW 11.5 mph - N/A   Mostly Cloudy
3:55 PM 91.4 °F 92.1 °F 62.6 °F 38% 29.93 in 10.0 mi SSW 10.4 mph - N/A   Scattered Clouds
4:15 PM 91.4 °F 91.4 °F 60.8 °F 36% 29.93 in 10.0 mi South 10.4 mph 19.6 mph N/A   Scattered Clouds
4:35 PM 93.2 °F 94.1 °F 62.6 °F 36% 29.93 in 10.0 mi South 8.1 mph - N/A   Mostly Cloudy
4:55 PM 91.4 °F 92.1 °F 62.6 °F 38% 29.93 in 10.0 mi SSE 10.4 mph - N/A   Mostly Cloudy
5:35 PM 91.4 °F 91.4 °F 60.8 °F 36% 29.93 in 10.0 mi SSE 11.5 mph 16.1 mph N/A   Mostly Cloudy
5:55 PM 91.4 °F 91.4 °F 60.8 °F 36% 29.92 in 10.0 mi SSE 9.2 mph - N/A   Mostly Cloudy
6:15 PM 89.6 °F 90.1 °F 62.6 °F 40% 29.92 in 10.0 mi SSE 11.5 mph - N/A   Scattered Clouds
6:35 PM 89.6 °F 90.1 °F 62.6 °F 40% 29.92 in 10.0 mi SSE 10.4 mph - N/A   Clear
6:55 PM 89.6 °F 89.5 °F 60.8 °F 38% 29.92 in 10.0 mi SSE 8.1 mph - N/A   Clear
7:15 PM 86.0 °F 86.6 °F 62.6 °F 45% 29.93 in 10.0 mi SSE 9.2 mph - N/A   Clear
7:35 PM 86.0 °F 86.6 °F 62.6 °F 45% 29.93 in 10.0 mi SSE 10.4 mph - N/A   Scattered Clouds
7:55 PM 84.2 °F 85.0 °F 62.6 °F 48% 29.94 in 10.0 mi SSE 9.2 mph - N/A   Clear
8:15 PM 84.2 °F 85.0 °F 62.6 °F 48% 29.95 in 10.0 mi SSE 8.1 mph - N/A   Clear
8:35 PM 84.2 °F 85.0 °F 62.6 °F 48% 29.95 in 10.0 mi SSE 9.2 mph - N/A   Clear
8:55 PM 82.4 °F 83.4 °F 62.6 °F 51% 29.96 in 10.0 mi SSE 9.2 mph - N/A   Clear
9:15 PM 82.4 °F 83.9 °F 64.4 °F 54% 29.97 in 10.0 mi SSE 6.9 mph - N/A   Scattered Clouds
9:35 PM 82.4 °F 83.9 °F 64.4 °F 54% 29.97 in 10.0 mi SSE 9.2 mph - N/A   Scattered Clouds
9:55 PM 82.4 °F 83.9 °F 64.4 °F 54% 29.98 in 10.0 mi South 16.1 mph 19.6 mph N/A   Clear
10:15 PM 82.4 °F 83.4 °F 62.6 °F 51% 29.99 in 10.0 mi South 13.8 mph 19.6 mph N/A   Clear
10:55 PM 80.6 °F 81.5 °F 60.8 °F 51% 29.99 in 10.0 mi South 10.4 mph 18.4 mph N/A   Clear
11:15 PM 78.8 °F - 60.8 °F 54% 29.99 in 10.0 mi South 10.4 mph 16.1 mph N/A   Clear
11:35 PM 77.0 °F - 59.0 °F 54% 29.99 in 10.0 mi South 8.1 mph - N/A   Clear
11:55 PM 77.0 °F - 60.8 °F 57% 29.99 in 10.0 mi South 6.9 mph - N/A   Clear